This is the latest recevied weather packets stored in our database for station/object VE1DX. If no packets are shown the sender has not sent any weather packets the latest 10 day(s).
| Time | Temp. | Humidity | Pressure | Rain* | Wind** | Luminosity | Snow |
|---|---|---|---|---|---|---|---|
| 1777839617 | 5° C | 94% | 987.3 hPa | 1.52 mm | - | - | - |
| 1777839317 | 5° C | 94% | 987.7 hPa | 1.27 mm | - | - | - |
| 1777839017 | 5° C | 94% | 988.1 hPa | 1.27 mm | - | - | - |
| 1777838717 | 5° C | 94% | 988.3 hPa | 1.27 mm | - | - | - |
| 1777838417 | 5° C | 94% | 988.7 hPa | 1.27 mm | - | - | - |
| 1777838117 | 5° C | 93% | 989.1 hPa | 1.52 mm | - | - | - |
| 1777837817 | 5° C | 93% | 989.4 hPa | 1.52 mm | - | - | - |
| 1777837517 | 5° C | 93% | 989.6 hPa | 1.52 mm | - | - | - |
| 1777837217 | 5° C | 93% | 990 hPa | 1.78 mm | - | - | - |
| 1777836918 | 5° C | 93% | 990.4 hPa | 2.29 mm | - | - | - |
| 1777836617 | 5° C | 93% | 990.7 hPa | 2.29 mm | - | - | - |
| 1777836317 | 5° C | 93% | 991.1 hPa | 2.79 mm | - | - | - |
| 1777836017 | 5° C | 93% | 991.5 hPa | 3.05 mm | - | - | - |
| 1777835717 | 5° C | 93% | 991.7 hPa | 3.3 mm | - | - | - |
| 1777835417 | 5° C | 93% | 992.1 hPa | 4.06 mm | - | - | - |
| 1777835117 | 5° C | 93% | 992.5 hPa | 4.06 mm | - | - | - |
| 1777834817 | 5° C | 93% | 992.6 hPa | 4.32 mm | - | - | - |
| 1777834517 | 5° C | 93% | 993 hPa | 4.32 mm | - | - | - |
| 1777834217 | 5° C | 93% | 993.2 hPa | 4.32 mm | - | - | - |
| 1777833917 | 5° C | 93% | 993.4 hPa | 4.32 mm | - | - | - |
| 1777833617 | 5° C | 93% | 993.8 hPa | 4.32 mm | - | - | - |
| 1777833317 | 5.56° C | 93% | 994.2 hPa | 4.06 mm | - | - | - |
| 1777833017 | 5.56° C | 93% | 994.5 hPa | 4.06 mm | - | - | - |
| 1777832717 | 5.56° C | 93% | 994.7 hPa | 3.81 mm | - | - | - |
| 1777832417 | 5.56° C | 93% | 994.9 hPa | 3.56 mm | - | - | - |
* Rain latest hour (hover to see other rain measurements)
** Current wind speed in m/s (hover to see current wind gust speed)